Orbital elements of COSMOS 1275 DEB
| Launched | 3 June 1981 |
| Flight ended | – |
| Launch site | Plesetsk Missile and Space Complex, Russia |
| Owner | Commonwealth of Independent States (former USSR) |
| NORAD ID | 42188 |
| Date fetched |
Epoch osculation |
Inc. [°] |
Ecc. | RA asc node [hr] |
Arg Peri. [°] |
Mean anom [°] |
Mean motion [rev/day] |
Abs. mag |
| Date fetched |
Epoch osculation |
Inc. [°] |
Ecc. | RA asc node [hr] |
Arg Peri. [°] |
Mean anom [°] |
Mean motion [rev/day] |
Abs. mag |
| 2026 May 03 17:57 | 2026 Apr 29 02:47:12 | 82.8495 | 0.00475 | 11.0761 | 257.4530 | 102.1331 | 14.16127 | – |
| 2026 May 02 17:57 | 2026 Apr 29 02:47:12 | 82.8495 | 0.00475 | 11.0761 | 257.4530 | 102.1331 | 14.16127 | – |
| 2026 May 01 17:56 | 2026 Apr 29 02:47:12 | 82.8495 | 0.00475 | 11.0761 | 257.4530 | 102.1331 | 14.16127 | – |
| 2026 Apr 30 17:56 | 2026 Apr 29 02:47:12 | 82.8495 | 0.00475 | 11.0761 | 257.4530 | 102.1331 | 14.16127 | – |
| 2026 Apr 29 17:57 | 2026 Apr 24 10:51:58 | 82.8498 | 0.00472 | 11.3259 | 271.8366 | 102.1331 | 14.16127 | – |
| 2026 Apr 28 17:56 | 2026 Apr 24 10:51:58 | 82.8498 | 0.00472 | 11.3259 | 271.8366 | 102.1331 | 14.16127 | – |
| 2026 Apr 27 17:58 | 2026 Apr 24 10:51:58 | 82.8498 | 0.00472 | 11.3259 | 271.8366 | 102.1331 | 14.16127 | – |
| 2026 Apr 26 17:58 | 2026 Apr 24 10:51:58 | 82.8498 | 0.00472 | 11.3259 | 271.8366 | 102.1331 | 14.16127 | – |
| 2026 Apr 25 17:58 | 2026 Apr 24 10:51:58 | 82.8498 | 0.00472 | 11.3259 | 271.8366 | 102.1331 | 14.16127 | – |
| 2026 Apr 24 17:59 | 2026 Apr 24 10:51:58 | 82.8498 | 0.00472 | 11.3259 | 271.8366 | 102.1331 | 14.16127 | – |
| 2026 Apr 23 17:57 | 2026 Apr 19 10:27:54 | 82.8501 | 0.00470 | 11.5947 | 287.3223 | 102.1331 | 14.16127 | – |
| 2026 Apr 22 17:57 | 2026 Apr 19 10:27:54 | 82.8501 | 0.00470 | 11.5947 | 287.3223 | 102.1331 | 14.16127 | – |
| 2026 Apr 21 17:57 | 2026 Apr 19 10:27:54 | 82.8501 | 0.00470 | 11.5947 | 287.3223 | 102.1331 | 14.16127 | – |
| 2026 Apr 20 17:57 | 2026 Apr 19 10:27:54 | 82.8501 | 0.00470 | 11.5947 | 287.3223 | 102.1331 | 14.16127 | – |
| 2026 Apr 19 17:58 | 2026 Apr 19 10:27:54 | 82.8501 | 0.00470 | 11.5947 | 287.3223 | 102.1331 | 14.16127 | – |
| 2026 Apr 18 17:56 | 2026 Apr 13 05:14:01 | 82.8511 | 0.00469 | 11.9278 | 306.6782 | 102.1331 | 14.16127 | – |
| 2026 Apr 16 17:57 | 2026 Apr 13 05:14:01 | 82.8511 | 0.00469 | 11.9278 | 306.6782 | 102.1331 | 14.16127 | – |
| 2026 Apr 14 17:57 | 2026 Apr 13 05:14:01 | 82.8511 | 0.00469 | 11.9278 | 306.6782 | 102.1331 | 14.16127 | – |
| 2026 Apr 13 17:57 | 2026 Apr 13 05:14:01 | 82.8511 | 0.00469 | 11.9278 | 306.6782 | 102.1331 | 14.16127 | – |
| 2026 Apr 12 17:57 | 2026 Apr 08 04:49:45 | 82.8506 | 0.00469 | 12.1965 | 322.3905 | 102.1331 | 14.16127 | – |
| 2026 Apr 11 17:57 | 2026 Apr 08 04:49:45 | 82.8506 | 0.00469 | 12.1965 | 322.3905 | 102.1331 | 14.16127 | – |
| 2026 Apr 10 17:58 | 2026 Apr 08 04:49:45 | 82.8506 | 0.00469 | 12.1965 | 322.3905 | 102.1331 | 14.16127 | – |
| 2026 Apr 09 18:01 | 2026 Apr 08 04:49:45 | 82.8506 | 0.00469 | 12.1965 | 322.3905 | 102.1331 | 14.16127 | – |
| 2026 Apr 08 17:57 | 2026 Apr 08 04:49:45 | 82.8506 | 0.00469 | 12.1965 | 322.3905 | 102.1331 | 14.16127 | – |
| 2026 Apr 07 17:57 | 2026 Apr 01 23:35:33 | 82.8516 | 0.00471 | 12.5296 | 341.7446 | 102.1331 | 14.16127 | – |
| 2026 Apr 06 17:57 | 2026 Apr 01 23:35:33 | 82.8516 | 0.00471 | 12.5296 | 341.7446 | 102.1331 | 14.16127 | – |